Regional Weather Roundup
Issued by NWS

Current Version | Previous Version | Text Only | Print | Product List | Glossary Off
Versions: 1 2 3 4 5 6 7 8 9 10 11 12 13 14 15 16 17 18 19 20 21 22 23 24 25 26 27 28 29 30 31 32 33 34 35 36 37 38 39 40 41 42 43 44 45 46 47 48 49 50

000
ASUS44 KJAN 181510
RWRMS

MISSISSIPPI HOURLY WEATHER ROUNDUP
NATIONAL WEATHER SERVICE JACKSON MS
1000 AM CDT FRI APR 18 2014

NOTE: "FAIR: INDICATES FEW OR NO CLOUDS BELOW 12,000 FEET WITH NO
SIGNIFICANT WEATHER AND/OR OBSTRUCTIONS TO VISIBILITY.

MSZ001>002-007>008-010>013-018>021-025>028-034>036-181600-
NORTHWEST MISSISSIPPI

CITY           SKY/WX    TMP DP  RH WIND       PRES   REMARKS
CLARKSDALE       N/A     66  55  68 E6        30.25R
CLEVELAND      FAIR      66  56  71 E8G16     30.22F
GREENWOOD      CLOUDY    62  53  72 NE5       30.23S
GREENVILLE     PTSUNNY   65  54  67 E7        30.21F
GRENADA        CLOUDY    61  52  72 E6        30.24S
OLIVE BRANCH   PTSUNNY   64  54  68 SE12      30.25S
OXFORD         FAIR      61  48  63 E3        30.25F
TUNICA         SUNNY     66  52  59 NE5       30.25S
$$

MSZ003>006-009-014>017-022>024-029>033-037>039-181600-
NORTHEAST MISSISSIPPI

CITY           SKY/WX    TMP DP  RH WIND       PRES   REMARKS
BELMONT        FAIR      59  47  63 SE9       30.27R
COLUMBUS AFB   CLOUDY    60  50  70 NE5       30.25R
CORINTH        FAIR      64  46  52 SE8       30.26S
GOLDN TRIANGLE CLOUDY    59  48  67 NE5       30.27S
STARKVILLE     CLOUDY    61  52  72 NE5       30.24S
TUPELO         PTSUNNY   63  48  58 SE10      30.25S
$$

MSZ040-058-181600-
CENTRAL MISSISSIPPI

CITY           SKY/WX    TMP DP  RH WIND       PRES   REMARKS
JACKSON INTL   CLOUDY    61  56  83 N9        30.19S
JACKSON HAWKNS CLOUDY    64  55  72 NE5       30.19F
MERIDIAN KEY   CLOUDY    56  53  90 E12       30.20R
MERIDIAN NAS   CLOUDY    57  53  86 NE12      30.22R
RAYMOND        CLOUDY    63  57  82 N3        30.19F
VICKSBURG      CLOUDY    66  57  72 NE8       30.20F
$$

MSZ059>079-181600-
SOUTH MISSISSIPPI

CITY           SKY/WX    TMP DP  RH WIND       PRES   REMARKS
BROOKHAVEN     CLOUDY    61  57  88 N8        30.18R
COLUMBIA       CLOUDY    63  59  88 MISG      30.14R
HATTIESBURG    CLOUDY    60  58  92 N9        30.14F
MCCOMB         MOSUNNY   66  57  72 NE8       30.14S
NATCHEZ        PTSUNNY   61  55  82 NE8       30.18F
PINE BELT      CLOUDY    59  55  88 NE12      30.15S
$$

MSZ080>082-181600-
COASTAL MISSISSIPPI

CITY           SKY/WX    TMP DP  RH WIND       PRES   REMARKS
BAY ST LOUIS   PTSUNNY   63  54  72 N6        30.09F
BILOXI         CLOUDY    63  60  92 NE12      30.08R
PASCAGOULA     LGT RAIN  60  59  96 N14       30.08R FOG
GULFPORT       CLOUDY    64  59  83 NE8       30.08S
$$



USA.gov is the U.S. government's official web portal to all federal, state and local government web resources and services.